Findlay, OH

5:19 AM EST on December 09, 2019 (GMT -0500)
Findlay

Weather History for KFDY - October, 2019

Change the Weather History Date:

Tuesday, October 8, 2019

  Actual Average Record
Temperature  
Mean Temperature 58 °F -  
Max Temperature 73 °F 65 °F 90 °F (2007)
Min Temperature 44 °F 44 °F 25 °F (1952)
Degree Days  
Heating Degree Days 7    
Growing Degree Days 8 (Base 50)    
Moisture  
Dew Point 44 °F    
Average Humidity 65    
Maximum Humidity 93    
Minimum Humidity 31    
Precipitation  
Precipitation 0.00 in - - ()
Sea Level Pressure  
Sea Level Pressure 30.21 in    
Wind  
Wind Speed 2 mph (ENE)    
Max Wind Speed 9 mph    
Max Gust Speed -    
Visibility 10 miles    
Events      
Averages and records for this station are not official NWS values.
T = Trace of Precipitation, MM = Missing Value Source: NWS Daily Summary

Daily Weather History Graph

Daily Weather History Graph

Search for Another Location

Airport or City:

Astronomy

Oct. 08, 2019 Rise Set
Actual Time 7:38 AM EDT 7:05 PM EDT
Civil Twilight 7:10 AM EDT 7:32 PM EDT
Nautical Twilight 6:39 AM EDT 8:04 PM EDT
Astronomical Twilight 6:07 AM EDT 8:36 PM EDT
Moon 5:06 PM EDT (10/8) 2:23 AM EDT (10/8)
Length of Visible Light 12h 22m
Length of Day
11h 27m
Waxing Gibbous, 77% of the Moon is Illuminated
Oct 8
Waxing Gibbous
Oct 13
Full
Oct 21
Last Quarter
Oct 27
New
Nov 4
First Quarter

Hourly Weather History & Observations

Time (EDT) Temp. Dew Point Humidity Pressure Visibility Wind Dir Wind Speed Gust Speed Precip Events Conditions
12:53 AM 48.9 °F 44.1 °F 83% 30.22 in 10.0 mi Calm Calm - N/A   Clear
1:53 AM 46.9 °F 43.0 °F 86% 30.22 in 10.0 mi South 3.5 mph - N/A   Clear
2:53 AM 48.9 °F 44.1 °F 83% 30.22 in 10.0 mi Calm Calm - N/A   Clear
3:53 AM 48.0 °F 43.0 °F 83% 30.21 in 10.0 mi Calm Calm - N/A   Clear
4:53 AM 46.9 °F 43.0 °F 86% 30.22 in 10.0 mi Calm Calm - N/A   Clear
5:53 AM 46.0 °F 43.0 °F 89% 30.23 in 10.0 mi Calm Calm - N/A   Clear
6:53 AM 46.0 °F 42.1 °F 86% 30.24 in 10.0 mi Calm Calm - N/A   Clear
7:53 AM 44.1 °F 42.1 °F 93% 30.26 in 10.0 mi Calm Calm - N/A   Clear
8:53 AM 48.0 °F 45.0 °F 89% 30.26 in 10.0 mi Calm Calm - N/A   Clear
9:53 AM 57.9 °F 48.9 °F 72% 30.26 in 10.0 mi NE 3.5 mph - N/A   Clear
10:53 AM 62.1 °F 50.0 °F 65% 30.26 in 10.0 mi East 4.6 mph - N/A   Clear
11:53 AM 66.0 °F 48.9 °F 54% 30.26 in 10.0 mi Variable 3.5 mph - N/A   Clear
12:53 PM 70.0 °F 43.0 °F 38% 30.24 in 10.0 mi North 4.6 mph - N/A   Clear
1:53 PM 70.0 °F 41.0 °F 35% 30.22 in 10.0 mi Calm Calm - N/A   Clear
2:53 PM 71.1 °F 41.0 °F 34% 30.19 in 10.0 mi Calm Calm - N/A   Clear
3:53 PM 72.0 °F 39.9 °F 31% 30.18 in 10.0 mi NNE 3.5 mph - N/A   Clear
4:53 PM 72.0 °F 42.1 °F 34% 30.17 in 10.0 mi Variable 4.6 mph - N/A   Clear
5:53 PM 71.1 °F 42.1 °F 35% 30.17 in 10.0 mi East 8.1 mph - N/A   Clear
6:53 PM 66.9 °F 43.0 °F 42% 30.17 in 10.0 mi East 5.8 mph - N/A   Clear
7:53 PM 62.1 °F 45.0 °F 53% 30.19 in 10.0 mi East 5.8 mph - N/A   Clear
8:53 PM 60.1 °F 46.9 °F 62% 30.19 in 10.0 mi ENE 9.2 mph - N/A   Clear
9:53 PM 57.9 °F 48.0 °F 70% 30.19 in 10.0 mi East 6.9 mph - N/A   Clear
10:53 PM 55.9 °F 46.9 °F 72% 30.19 in 10.0 mi East 6.9 mph - N/A   Clear
11:53 PM 55.0 °F 48.0 °F 77% 30.19 in 10.0 mi East 6.9 mph - N/A   Clear